SCP
-0 -0 -0 -0 -0 -0 -0 -0 -0 0 0 0 0 0 0 0 0 0 0 0 0 0 0 -0 0 0 0 0 0 0 0 0
-0 -0 -0 -0 -0 -0 -0 -0 0 0 0 0 0 0 0 0 -0 0 0 0 0 0 0 -0 0 0 0 0 0 0 0 0
-0 -0 -0 -0 -0 -0 -0 0 0 0 0 0 0 0 -0 0 0 -0 0 -0 0 0 -0 0 0 0 0 0 0 0 0 0
-0 -0 -0 -0 -0 -0 -0 0 0 0 0 0 -0 0 0 0 0 -0 0 0 0 0 0 0 -0 0 0 -0 0 -0 0 0
-0 -0 -0 -0 0 0 0 0 0 0 0 -0 0 0 0 0 0 0 0 0 0 0 0 0 0 0 0 -0 -0 -0 -0 0
-0 -0 -0 -0 -0 0 0 0 0 0 0 0 0 0 0 0 0 0 0 0 0 0 0 0 0 0 0 0 -0 0 0 0
-0 -0 -0 -0 -0 0 0 0 0 0 0 -0 0 0 0 0 0 0 0 0 0 0 0 0 0 0 0 0 -0 0 -0 -0
-0 0 0 0 0 -0 -0 -0 0 0 0 -0 0 0 0 0 0 0 0 0 0 0 0 0 0 0 0 0 0 0 0 0
-0 0 0 0 0 0 -0 -0 -0 0 0 -0 -0 0 0 0 0 0 0 0 0 0 0 0 0 0 0 0 0 0 0 0
-0 0 0 0 0 0 -0 -0 -0 -0 -0 -0 0 0 0 0 0 0 0 0 0 0 0 0 0 0 0 0 0 0 0 0
-0 0 0 0 0 0 0 -0 0 0 0 0 0 0 0 0 0 0 0 0 0 0 0 0 0 0 0 0 0 0 0 0
0 0 0 0 0 0 0 0 0 0 0 0 0 0 0 0 0 0 0 0 0 0 0 0 0 0 0 0 0 0 0 0
0 0 0 0 0 0 0 0 0 0 0 0 0 0 0 0 0 0 0 0 0 0 0 0 0 0 0 0 0 0 0 0
0 0 0 0 0 0 0 0 0 0 0 0 0 0 0 0 0 0 0 0 0 0 0 0 0 0 0 0 0 0 0 0
0 0 0 0 0 0 0 1 0 0 0 0 0 0 0 0 0 0 0 0 0 0 0 0 0 0 0 0 0 0 0 0
0 0 0 0 0 0 1 0 0 0 0 0 0 0 0 0 0 0 0 0 0 0 0 0 0 0 0 0 0 0 0 0
0 0 0 0 1 1 1 0 0 0 0 0 0 0 0 0 0 0 0 0 0 0 0 0 0 0 0 0 0 0 0 0
0 0 0 1 1 1 0 0 0 0 0 0 0 0 0 0 0 0 0 0 0 0 0 0 0 0 0 0 0 0 0 0
0 1 1 1 1 0 0 0 0 0 0 0 0 0 0 0 0 0 0 0 0 0 0 0 0 0 0 0 0 0 0 0
Wind_Speed_500mb
57 57 54 50 48 47 46 46 48 52 52 49 45 41 39 36 34 32 29 26 24 24 25 26 26 25 22 20 18 19 21 24
58 59 57 54 50 48 49 50 51 52 50 46 43 41 38 36 34 32 29 24 22 24 25 25 24 22 19 15 14 14 14 18
58 63 60 57 54 52 51 53 54 53 50 46 43 41 38 36 33 30 26 24 21 23 23 21 20 17 15 15 12 10 11 12
59 62 60 59 58 56 55 56 56 54 50 46 43 41 38 35 33 30 27 25 24 22 21 19 18 17 16 16 14 12 13 10
64 64 64 61 59 61 61 60 60 57 52 47 44 39 37 35 32 30 29 27 26 25 24 23 21 18 16 17 15 12 11 10
68 70 68 64 58 59 61 64 63 59 53 48 43 39 37 36 33 30 30 29 27 26 26 27 22 17 17 16 10 8 8 8
74 76 72 70 67 60 59 65 66 62 57 52 46 41 38 37 35 34 31 31 29 27 25 26 24 21 21 19 15 12 9 8
69 69 72 71 70 66 62 63 65 66 62 56 50 44 41 40 38 35 31 30 29 28 23 22 23 22 19 16 12 6 5 6
64 72 71 71 71 68 56 66 67 68 64 59 53 49 46 43 42 38 34 33 31 28 24 22 23 19 15 10 6 5 7 4
66 74 74 72 73 71 64 62 68 68 65 60 55 52 50 48 47 42 39 35 32 30 25 21 20 17 12 7 6 9 9 6
68 74 74 72 74 74 72 66 67 67 65 62 58 55 54 51 48 46 40 35 32 31 30 25 21 16 11 10 13 10 8 7
68 67 70 73 76 77 73 70 67 67 65 63 60 59 57 55 53 48 42 39 37 37 34 32 26 20 18 19 18 12 10 11
65 66 67 73 77 75 74 72 71 69 66 64 63 62 62 58 57 51 44 41 39 39 37 32 31 27 24 22 19 17 16 17
56 63 63 73 77 74 74 76 75 72 70 70 67 67 65 62 58 54 46 41 40 40 40 37 35 33 29 25 25 21 19 18
37 53 61 67 75 77 76 81 81 79 77 75 73 72 69 69 63 58 55 48 46 44 43 42 40 38 34 30 31 26 24 27
40 42 50 67 72 76 83 88 88 89 84 82 81 77 74 70 64 60 57 54 52 51 49 47 45 42 39 37 33 29 26 29
51 48 54 59 72 79 83 89 91 92 92 89 86 82 79 76 71 65 62 60 57 54 53 50 46 45 44 41 30 27 20 22
44 59 60 61 68 76 77 77 93 95 93 91 88 90 88 83 78 75 72 68 62 58 54 51 49 48 49 47 43 32 18 20
27 49 63 54 53 59 61 76 95 98 96 100 96 97 94 92 88 85 81 76 69 62 57 52 50 50 50 49 53 57 39 26
Wind_Direction_500mb
170 172 176 177 176 173 169 162 158 155 154 151 150 150 148 145 142 143 141 138 135 136 138 140 140 131 121 111 101 92 86 82
170 173 178 177 178 177 173 166 164 160 158 157 156 155 154 152 150 150 148 146 146 145 145 147 145 141 132 117 108 102 94 89
174 175 179 178 178 180 178 173 169 166 165 164 162 161 160 160 158 157 156 157 158 154 155 156 154 149 142 131 128 119 113 110
178 179 179 179 180 182 181 179 174 173 171 168 166 166 167 167 166 166 169 169 169 168 166 163 159 155 150 142 140 133 143 134
179 182 183 182 182 184 183 183 180 177 175 173 171 172 174 173 173 173 177 177 174 172 167 160 157 159 151 144 151 154 149 131
181 185 185 184 183 186 186 184 184 183 181 179 179 180 181 180 177 175 180 178 174 170 165 162 158 151 156 155 164 161 161 184
185 186 188 186 186 188 187 186 188 187 187 186 186 186 186 184 181 178 178 180 177 175 171 166 161 150 141 141 136 119 105 153
189 189 190 189 189 191 191 190 191 191 192 192 191 191 191 188 184 183 181 186 185 185 180 174 170 167 163 162 169 174 140 123
194 193 194 195 194 195 195 196 194 195 195 196 195 194 195 193 189 191 189 192 195 192 190 181 183 185 188 200 223 262 279 237
200 197 198 199 198 201 203 200 199 199 200 200 200 199 197 197 193 193 193 196 201 204 202 200 193 198 206 222 286 304 300 276
209 204 200 202 204 203 207 207 206 205 204 205 204 204 201 200 200 198 203 208 211 215 214 209 213 221 236 264 295 298 287 261
219 213 210 205 207 208 207 209 211 211 210 209 208 207 206 206 207 210 214 217 221 223 221 217 216 233 257 276 281 262 244 229
227 223 218 212 212 212 212 212 213 213 212 212 211 212 212 213 214 216 223 224 228 225 221 213 221 238 253 267 256 244 231 223
239 230 227 222 218 217 215 216 216 216 214 214 214 216 218 218 220 221 223 226 226 222 224 225 232 245 255 250 244 233 218 206
260 241 235 234 228 225 222 219 219 219 216 217 218 219 222 223 225 228 229 228 228 228 227 232 236 242 246 234 230 224 210 199
261 254 247 242 238 235 229 225 223 221 220 220 221 222 222 224 226 227 228 226 227 229 232 237 239 238 230 224 218 202 194 194
242 245 246 245 243 240 238 234 231 226 223 225 224 224 223 223 225 228 228 228 229 230 233 234 235 230 223 218 204 180 173 184
241 231 239 240 245 241 239 235 237 235 230 226 225 224 224 223 224 227 229 231 232 235 238 238 229 224 224 216 215 202 175 198
244 238 232 234 241 245 245 238 240 241 236 228 226 222 222 225 225 226 230 230 231 236 237 233 225 219 217 224 223 218 211 192
Wind_Speed_850mb
57 57 54 50 48 47 46 46 48 52 52 49 45 41 39 36 34 32 29 26 24 24 25 26 26 25 22 20 18 19 21 24
58 59 57 54 50 48 49 50 51 52 50 46 43 41 38 36 34 32 29 24 22 24 25 25 24 22 19 15 14 14 14 18
58 63 60 57 54 52 51 53 54 53 50 46 43 41 38 36 33 30 26 24 21 23 23 21 20 17 15 15 12 10 11 12
59 62 60 59 58 56 55 56 56 54 50 46 43 41 38 35 33 30 27 25 24 22 21 19 18 17 16 16 14 12 13 10
64 64 64 61 59 61 61 60 60 57 52 47 44 39 37 35 32 30 29 27 26 25 24 23 21 18 16 17 15 12 11 10
68 70 68 64 58 59 61 64 63 59 53 48 43 39 37 36 33 30 30 29 27 26 26 27 22 17 17 16 10 8 8 8
74 76 72 70 67 60 59 65 66 62 57 52 46 41 38 37 35 34 31 31 29 27 25 26 24 21 21 19 15 12 9 8
69 69 72 71 70 66 62 63 65 66 62 56 50 44 41 40 38 35 31 30 29 28 23 22 23 22 19 16 12 6 5 6
64 72 71 71 71 68 56 66 67 68 64 59 53 49 46 43 42 38 34 33 31 28 24 22 23 19 15 10 6 5 7 4
66 74 74 72 73 71 64 62 68 68 65 60 55 52 50 48 47 42 39 35 32 30 25 21 20 17 12 7 6 9 9 6
68 74 74 72 74 74 72 66 67 67 65 62 58 55 54 51 48 46 40 35 32 31 30 25 21 16 11 10 13 10 8 7
68 67 70 73 76 77 73 70 67 67 65 63 60 59 57 55 53 48 42 39 37 37 34 32 26 20 18 19 18 12 10 11
65 66 67 73 77 75 74 72 71 69 66 64 63 62 62 58 57 51 44 41 39 39 37 32 31 27 24 22 19 17 16 17
56 63 63 73 77 74 74 76 75 72 70 70 67 67 65 62 58 54 46 41 40 40 40 37 35 33 29 25 25 21 19 18
37 53 61 67 75 77 76 81 81 79 77 75 73 72 69 69 63 58 55 48 46 44 43 42 40 38 34 30 31 26 24 27
40 42 50 67 72 76 83 88 88 89 84 82 81 77 74 70 64 60 57 54 52 51 49 47 45 42 39 37 33 29 26 29
51 48 54 59 72 79 83 89 91 92 92 89 86 82 79 76 71 65 62 60 57 54 53 50 46 45 44 41 30 27 20 22
44 59 60 61 68 76 77 77 93 95 93 91 88 90 88 83 78 75 72 68 62 58 54 51 49 48 49 47 43 32 18 20
27 49 63 54 53 59 61 76 95 98 96 100 96 97 94 92 88 85 81 76 69 62 57 52 50 50 50 49 53 57 39 26
Wind_Direction_850mb
170 172 176 177 176 173 169 162 158 155 154 151 150 150 148 145 142 143 141 138 135 136 138 140 140 131 121 111 101 92 86 82
170 173 178 177 178 177 173 166 164 160 158 157 156 155 154 152 150 150 148 146 146 145 145 147 145 141 132 117 108 102 94 89
174 175 179 178 178 180 178 173 169 166 165 164 162 161 160 160 158 157 156 157 158 154 155 156 154 149 142 131 128 119 113 110
178 179 179 179 180 182 181 179 174 173 171 168 166 166 167 167 166 166 169 169 169 168 166 163 159 155 150 142 140 133 143 134
179 182 183 182 182 184 183 183 180 177 175 173 171 172 174 173 173 173 177 177 174 172 167 160 157 159 151 144 151 154 149 131
181 185 185 184 183 186 186 184 184 183 181 179 179 180 181 180 177 175 180 178 174 170 165 162 158 151 156 155 164 161 161 184
185 186 188 186 186 188 187 186 188 187 187 186 186 186 186 184 181 178 178 180 177 175 171 166 161 150 141 141 136 119 105 153
189 189 190 189 189 191 191 190 191 191 192 192 191 191 191 188 184 183 181 186 185 185 180 174 170 167 163 162 169 174 140 123
194 193 194 195 194 195 195 196 194 195 195 196 195 194 195 193 189 191 189 192 195 192 190 181 183 185 188 200 223 262 279 237
200 197 198 199 198 201 203 200 199 199 200 200 200 199 197 197 193 193 193 196 201 204 202 200 193 198 206 222 286 304 300 276
209 204 200 202 204 203 207 207 206 205 204 205 204 204 201 200 200 198 203 208 211 215 214 209 213 221 236 264 295 298 287 261
219 213 210 205 207 208 207 209 211 211 210 209 208 207 206 206 207 210 214 217 221 223 221 217 216 233 257 276 281 262 244 229
227 223 218 212 212 212 212 212 213 213 212 212 211 212 212 213 214 216 223 224 228 225 221 213 221 238 253 267 256 244 231 223
239 230 227 222 218 217 215 216 216 216 214 214 214 216 218 218 220 221 223 226 226 222 224 225 232 245 255 250 244 233 218 206
260 241 235 234 228 225 222 219 219 219 216 217 218 219 222 223 225 228 229 228 228 228 227 232 236 242 246 234 230 224 210 199
261 254 247 242 238 235 229 225 223 221 220 220 221 222 222 224 226 227 228 226 227 229 232 237 239 238 230 224 218 202 194 194
242 245 246 245 243 240 238 234 231 226 223 225 224 224 223 223 225 228 228 228 229 230 233 234 235 230 223 218 204 180 173 184
241 231 239 240 245 241 239 235 237 235 230 226 225 224 224 223 224 227 229 231 232 235 238 238 229 224 224 216 215 202 175 198
244 238 232 234 241 245 245 238 240 241 236 228 226 222 222 225 225 226 230 230 231 236 237 233 225 219 217 224 223 218 211 192